Погода в Охотске

Погода в Охотске : погода сейчас, прогноз погоды и архив. Всё, что Вы хотите узнать о погоде в Охотске!

Хотите узнать прогноз погоды в Охотске? Тогда Вам сюда: Погода в Охотске

Поиск расширенной информации на нашем сайте:

Другие новости

Новости СМИ2

Главная страница сайта

Новости сайта

03.07.2017

Напоминаем, что на нашем специализированном сайте Метеоцентр.Азия вы можете получить высокодетализированные автоматические прогнозы погоды по пунктам России, СНГ и мира в авиационном формате (включающие направление и скорость ветра, видимость, явления погоды, количество и форму облачности, нижнюю и верхнюю границу облачности).

Рекомендуем: сайт знакомств владикавказ подробнее mylove.ru сайт знакомств

Погода в Охотске - сегодня

Время (UTC), дата Ветер
(°,м/с) 
Видим.   Явления Облачность Т
(°С)
Тd
(°С)
f(%) Тe
(°С)
Pmin
(гПа)
dP
(гПа)
Po
(мм)
O2
(г/м3)
Тmin Tmax R s Состояние
почвы
21 18.09.17 360 (С) 20000 м    10/1 300 м средняя, верхняя 
[St|Ac lent|Cs]
+3 +0.4 83 +2  1011.7  0.4  758  302  +2.4         
00 19.09.17 350 (С) 20000 м    10/3 300 м средняя, верхняя 
[St|Ac trans|Ci fib]
+7.9 +2.6 69 +7  1011.4  -0.4  758  296           
03 19.09.17 340 (С) 20000 м    9/8 600 м средняя 
[Sc|Ac trans]
+13.5 +4.5 54 +14  1010.2  -1.2  757  290           
06 19.09.17 120 (ЮВ) 10 км  слаб. ливневой дождь  10/10 300 м кучево-дожд. 
[Cb cap]
+11.3 +9.4 88 +11  1010  -1.2  757  291           
09 19.09.17 120 (ЮВ) 10 км  слаб. ливневой дождь  10/10 300 м кучево-дожд. 
[Cb cap]
+11.5 +10.3 92 +12  1010.1  0.1  757  291    +13.9     
12 19.09.17 060 (СВ) 10 км  слаб. ливневой дождь  10/10 300 м кучево-дожд. 
[Cb cap]
+11.1 +10.1 94 +13  1010.2  0.1  757  291           
15 19.09.17 100 (В) 20000 м  {ливн. осадки}  10/10 720 м кучево-дожд. 
[Cb calv]
+11.9 +9.5 85 +11  1010  -0.2  757  291           
18 19.09.17 110 (В) 4000 м  дымка{ливн. осадки}  10/10 300 м 
[St]
+11.8 +8.9 82 +11  1009.9  0.1  757  291           
21 19.09.17 090 (В) 4{11}  4000 м  слаб. ливневой дождь  10/10 300 м кучево-дожд. 
[Cb cap]
+11 +8.4 84 +10  1009.9  757  292  +11    0.5     
00 20.09.17 360 (С) 10 км  слаб. ливневой дождь  10/10 300 м кучево-дожд. 
[Cb cap]
+9.8 +8.9 94 +9  1009.7  757  293  +9.6         
03 20.09.17 080 (В) 10 км  {ливн. осадки}  10/10 300 м кучево-дожд. 
[Cb calv]
+10.7 +7.7 82 +10  1009  -0.7  756  292           
06 20.09.17 060 (СВ) 20000 м  {ливн. осадки}  10/10 300 м кучево-дожд. 
[Cb calv]
+10.5 +6.9 78 +10  1008.3  -0.7  756  292           
09 20.09.17 020 (С) 10 км  слаб. ливневой дождь  10/10 300 м кучево-дожд. 
[Cb cap]
+9 +7.6 91 +8  1008.2  0.1  756  293    +11     
12 20.09.17 010 (С) 10 км  слаб. ливневой дождь  10/10 300 м кучево-дожд. 
[Cb cap]
+8.3 +7.2 93 +8  1007.6  -0.6  755  294           
15 20.09.17 010 (С) 10 км  слаб. ливневой дождь  10/10 300 м кучево-дожд. 
[Cb cap]
+7.9 +6.7 92 +7  1006.2  -1.4  754  294           
18 20.09.17 020 (С) 4-10{10}  4000 м  ливневой дождь  10/10 300 м кучево-дожд. 
[Cb cap]
+7.6 +6.5 93 +6  1004.9  -1.2  753  294           
21 20.09.17 020 (С) 3{11}  4000 м  ливневой дождь  10/10 300 м кучево-дожд. 
[Cb cap]
+8.2 +6.5 89 +8  1004.3  -0.7  753  293  +7.4    14     
00 21.09.17 040 (СВ) 10 км  слаб. ливневой дождь  10/10 300 м кучево-дожд. 
[Cb cap]
+8.4 +7.1 92 +8  1004.3  753  293           
03 21.09.17 360 (С) 4{10}  10 км  слаб. ливневой дождь  10/10 300 м кучево-дожд. 
[Cb cap]
+8.8 +7.7 93 +8  1004.2  0.1  753  292           
06 21.09.17 360 (С) 10 км  слаб. ливневой дождь  10/10 300 м кучево-дожд. 
[Cb cap]
+8.9 +8.3 96 +8  1004.3  0.1  753  292           
09 21.09.17 360 (С) 4000 м  ливневой дождь  10/10 300 м кучево-дожд. 
[Cb cap]
+8.4 +7.9 97 +7  1005.2  0.9  753  293    +9  18     
12 21.09.17 350 (С) 4000 м  слаб. ливневой дождь  10/10 300 м кучево-дожд. 
[Cb cap]
+7.9 +7.4 97 +6  1005.7  0.5  754  294           
15 21.09.17 350 (С) 4000 м  ливневой дождь  10/10 300 м кучево-дожд. 
[Cb cap]
+7.7 +7.1 96 +6  1005.7  754  294           
18 21.09.17 010 (С) 4000 м  ливневой дождь  10/10 300 м кучево-дожд. 
[Cb cap]
+7.1 +6.4 95 +6  1005.7  754  295           
21 21.09.17 010 (С) 10 км  слаб. ливневой дождь  10/10 300 м кучево-дожд. 
[Cb cap]
+6.8 +6.1 95 +6  1006.1  0.4  754  295  +6.8    11     
Время (UTC), дата Ветер
(°,м/с) 
Видим.   Явления Облачность Т
(°С)
Тd
(°С)
f(%) Тe
(°С)
Pmin
(гПа)
dP
(гПа)
Po
(мм)
O2
(г/м3)
Тmin Tmax R s Состояние
почвы

Для получения пояснительной информации подведите курсор к названию столбца.

ПОГОДА в Охотске - архив

Всё, что Вы хотите узнать о погоде в Охотске - удобно и подробно!

Выберите нужную дату (начиная с 1 января 2015* года) и нажмите кнопку "Найти".
Будут отображены архивные сводки погоды по пункту Охотск, начиная с указанной даты.


Отображать данные в формате CSV (для использования в таблицах Excel)


Внимание! Наш архив погоды предназначен исключительно для личного некоммерческого использования в познавательных целях. Если Вам необходимы официальные справки о состоянии погоды (для производственных, юридических, коммерческих и т.п. целей), обращайтесь в органы Росгидромета.

*Примечание: данная дата относится к архиву по метеостанциям СССР (Россия, СНГ, Балтия).
Архив по метеостанциям Зарубежной Европы и Азии (кроме Китая) хранится 10 дней, по другим регионам земного шара (Китай, Африка, Америка, Австралия, Океания) - 1 день.

Охотск - район местоположения метеостанции


Название, широта, долгота, высота метеостанции:
Охотск 59.4°ш. 143.2°д. 6 м над ур. моря [Российская Федерация]

Дополнительная информация

В oтличие oт бoльшинства пoгoдных сайтoв мы публикуем пoдрoбную метеoинфoрмацию в детальнoм прoфессиoнальнoм фoрмате.

Характеристики температуры и влажнoсти вoздуха измеряются на высoте 2 м в тени вдали oт зданий и деревьев.
Скoрoсть ветра измеряется на высoте 10 м (на урoвне рoста челoвека скoрoсть ветра ниже в 1.5-2 раза). Если метеoстанция нахoдится в гoрoде или в лесу, тo скoрoсть ветра занижена на 2-4 м/с пo сравнению с oткрытым местoм. Скoрoсть ветра над акватoриями крупных рек и oзёр, а также на вершинах хoлмoв на 2-5 м/с выше, чем в oбычных услoвиях.
Атмoсфернoе давление в разных тoчках местнoсти мoжет значительнo oтличаться oт давления на метеoстанции, в зависимoсти oт услoвий рельефа (при пoдъёме на 10 м давление пoнижается примернo на 1 мм рт.ст.).